Weather History for Thermal, CA

Change the Weather History Date:

Monday, January 13, 2014

  Actual Average Record
Temperature  
Mean Temperature 58 °F 54 °F  
Max Temperature 79 °F 71 °F 85 °F (1983)
Min Temperature 37 °F 38 °F 20 °F (2013)
Degree Days  
Heating Degree Days 7 11  
Month to date heating degree days 138 145  
Since 1 July heating degree days 613 683  
Cooling Degree Days 0 0  
Month to date cooling degree days 0 0  
Year to date cooling degree days 0 0  
Growing Degree Days 8 (Base 50)    
Moisture  
Dew Point 19 °F    
Average Humidity 28    
Maximum Humidity 48    
Minimum Humidity 7    
Precipitation  
Precipitation 0.00 in 0.02 in 0.44 in (1997)
Month to date precipitation 0.00 0.30  
Year to date precipitation 0.00 0.30  
Since 1 July precipitation 1.47 1.68  
Snow  
Snow 0.00 in - - ()
Month to date snowfall 0.0  
Year to date snowfall 0.0  
Since 1 July snowfall 0.0  
Snow Depth 0.00 in    
Sea Level Pressure  
Sea Level Pressure 30.29 in    
Wind  
Wind Speed 4 mph (NNW)    
Max Wind Speed 9 mph    
Max Gust Speed 12 mph    
Visibility 10 miles    
Events      
T = Trace of Precipitation, MM = Missing Value Source: NWS Daily Summary

Daily Weather History Graph

Daily Weather History Graph

Search for Another Location

Airport:

Trip Planner

Search our weather history database for the weather conditions in past years. The results will help you decide how hot, cold, wet, or windy it might be!

Date:

Astronomy

Jan. 13, 2014 Rise Set
Actual Time 6:49 AM PST 4:57 PM PST
Civil Twilight 6:22 AM PST 5:24 PM PST
Nautical Twilight 5:51 AM PST 5:55 PM PST
Astronomical Twilight 5:21 AM PST 6:25 PM PST
Moon 3:15 PM PST (1/13) 4:42 AM PST (1/13)
Length of Visible Light 11h 02m
Length of Day
10h 08m
Waxing Gibbous, 95% of the Moon is Illuminated
Jan 13
Waxing Gibbous
Jan 15
Full
Jan 23
Last Quarter
Jan 30
New
Feb 6
First Quarter

Hourly Weather History & Observations

Time (PST) Temp. Windchill Dew Point Humidity Pressure Visibility Wind Dir Wind Speed Gust Speed Precip Events Conditions
12:52 AM 43.0 °F - 21.9 °F 43% 30.25 in 10.0 mi Calm Calm - N/A   Clear
1:52 AM 41.0 °F 38.0 °F 23.0 °F 49% 30.27 in 10.0 mi NNW 4.6 mph - N/A   Clear
2:52 AM 42.1 °F - 19.0 °F 40% 30.27 in 10.0 mi Calm Calm - N/A   Clear
3:52 AM 39.0 °F 34.0 °F 21.0 °F 49% 30.28 in 10.0 mi NNW 6.9 mph - N/A   Clear
4:52 AM 48.9 °F - 18.0 °F 29% 30.29 in 10.0 mi North 9.2 mph - N/A   Clear
5:52 AM 42.1 °F - 19.0 °F 40% 30.31 in 10.0 mi Calm Calm - N/A   Clear
6:52 AM 39.9 °F 35.8 °F 19.0 °F 43% 30.32 in 10.0 mi North 5.8 mph - N/A   Clear
7:52 AM 53.1 °F - 19.0 °F 26% 30.34 in 10.0 mi NNE 8.1 mph - N/A   Clear
8:52 AM 63.0 °F - 21.0 °F 20% 30.36 in 10.0 mi NNW 6.9 mph - N/A   Clear
9:52 AM 70.0 °F - 19.0 °F 14% 30.37 in 10.0 mi NNW 5.8 mph - N/A   Clear
10:52 AM 73.9 °F - 10.0 °F 9% 30.35 in 10.0 mi NW 9.2 mph - N/A   Clear
11:52 AM 75.0 °F - 10.9 °F 9% 30.32 in 10.0 mi Variable 3.5 mph - N/A   Clear
12:52 PM 77.0 °F - 10.9 °F 8% 30.29 in 10.0 mi Variable 4.6 mph - N/A   Clear
1:52 PM 77.0 °F - 8.1 °F 7% 30.27 in 10.0 mi Calm Calm - N/A   Clear
2:52 PM 78.1 °F - 9.0 °F 7% 30.26 in 10.0 mi Calm Calm - N/A   Clear
3:52 PM 78.1 °F - 9.0 °F 7% 30.26 in 10.0 mi Calm Calm - N/A   Clear
4:52 PM 64.9 °F - 25.0 °F 22% 30.26 in 10.0 mi SSE 3.5 mph - N/A   Clear
5:52 PM 57.9 °F - 25.0 °F 28% 30.26 in 10.0 mi Calm Calm - N/A   Clear
6:52 PM 51.1 °F - 25.0 °F 36% 30.26 in 10.0 mi Calm Calm - N/A   Clear
7:52 PM 48.9 °F - 26.1 °F 41% 30.27 in 10.0 mi Calm Calm - N/A   Clear
8:52 PM 46.0 °F - 26.1 °F 46% 30.28 in 10.0 mi Calm Calm - N/A   Clear
9:52 PM 44.1 °F - 21.9 °F 42% 30.30 in 10.0 mi Calm Calm - N/A   Clear
10:52 PM 46.0 °F - 24.1 °F 42% 30.30 in 10.0 mi Calm Calm - N/A   Clear
11:52 PM 41.0 °F 38.0 °F 23.0 °F 49% 30.29 in 10.0 mi SSE 4.6 mph - N/A   Clear